STARLINK-11268 [DTC]

Last updated on Tue Oct 08 2024 00:02:04 GMT+0000 (Coordinated Universal Time)

1 61055U 24164F 24281.42107799 .00070096 00000+0 42718-3 0 9996 2 61055 53.1558 346.5476 0001151 67.6713 292.4429 15.76811885 5040
UTC large
Height (km)
Speed (km/s)
/
Latitude / Longitude
Inclination (degrees)
Orbital Period (minutes)
Azimuth
Elevation
Range (km)
Doppler Factor

Next 0 passes for location: London (51.5072 / 0.1276)

Sorry there are no passes over London.